Miscellaneous Local Product
Issued by NWS Hastings, NE

Home | Current Version | Previous Version | Graphics & Text | Print | Product List | Glossary On
Versions: 1 2 3 4 5 6 7 8 9 10 11 12 13 14 15 16 17 18 19 20 21 22 23 24 25 26 27 28 29 30 31 32 33 34 35 36 37 38 39 40 41 42 43 44 45 46 47 48 49 50
000
AXUS43 KGID 181102
MISGRI

GID CWA HOURLY WEATHER ROUNDUP
NATIONAL WEATHER SERVICE HASTINGS NE
600 AM CDT SAT APR 18 2015

NOTE: "FAIR" INDICATES FEW OR NO CLOUDS BELOW 12,000 FEET WITH NO
SIGNIFICANT WEATHER AND/OR OBSTRUCTIONS TO VISIBILITY.

...SOUTH CENTRAL NEBRASKA...

CITY           SKY/WX    TMP DP  RH WIND       PRES   REMARKS
GRAND ISLAND   LGT RAIN  57  55  93 SW13      29.92R FOG
HASTINGS       LGT RAIN  56  55  97 SW3       29.92S FOG
KEARNEY        CLOUDY    54  52  94 NE14      29.88F
ORD            NOT AVBL
YORK           CLOUDY    59  55  88 SE9       29.90F
AURORA         CLOUDY    56  55  97 SE9       29.90S
LEXINGTON      CLOUDY    52  50  93 NW9       29.91R
HOLDREGE       CLOUDY    53  51  94 N7        29.87F
HEBRON         CLOUDY    58  55  90 CALM      29.90F

...NEBRASKA PANHANDLE...

CITY           SKY/WX    TMP DP  RH WIND       PRES   REMARKS
CHADRON        CLOUDY    47  46  97 N10       29.96F
ALLIANCE       LGT RAIN  45  44  97 CALM      29.95S FOG
SCOTTSBLUFF    LGT RAIN  42  42 100 NW5       29.95F
SIDNEY         CLOUDY    40  38  93 NW7       29.94S

...WESTERN AND NORTH CENTRAL NEBRASKA...

CITY           SKY/WX    TMP DP  RH WIND       PRES   REMARKS
VALENTINE      LGT RAIN  50  45  83 NE13      29.93F
AINSWORTH      LGT RAIN  51  50  95 NE10      29.92F
ONEILL         CLOUDY    55  49  80 NE7       29.94F
BROKEN BOW     CLOUDY    53  51  93 N9        29.90F
IMPERIAL       PTCLDY    44  42  93 NW6       29.91F
NORTH PLATTE   CLOUDY    49  46  90 N8        29.90F
MCCOOK         CLEAR     47  44  90 N8        29.89F

...EASTERN NEBRASKA...

CITY           SKY/WX    TMP DP  RH WIND       PRES   REMARKS
NORFOLK        NOT AVBL
SO SIOUX CITY  LGT RAIN  57  50  77 NW3       29.97F
TEKAMAH        CLOUDY    58  51  78 N10       29.93F
COLUMBUS       CLOUDY    57  50  77 E6        29.94R
ALBION         CLOUDY    57  51  80 E10       29.92S
OMAHA EPPLEY   CLOUDY    63  55  75 SE6       29.92F
OFFUTT AFB     CLOUDY    59  56  88 NE5       29.91F
MILLARD        CLOUDY    61  56  82 CALM      29.92F
LINCOLN        CLOUDY    61  55  81 SE5       29.91F
NEBRASKA CITY  CLOUDY    58  53  80 CALM      29.92F
BEATRICE       CLOUDY    60  55  85 SE6       29.91S
FALLS CITY     CLOUDY    59  55  87 E3        29.90F

...NORTHERN KANSAS...

CITY           SKY/WX    TMP DP  RH WIND       PRES   REMARKS
GOODLAND       FOG       38  38 100 W3        29.92R VSB 1/4
HILL CITY      PTCLDY    48  45  89 SW3       29.91F
NORTON         SUNNY     48  45  87 CALM      29.90R
PHILLIPSBURG   CLEAR     54  54 100 S5        29.91R
SMITH CENTER   CLOUDY    54  54 100 NE8       29.89F
BELOIT         CLOUDY    57  57 100 S6        29.91R
HAYS           CLEAR     48  41  76 SE3       29.90F
RUSSELL        PTCLDY    52  51  97 NE6       29.89F
CONCORDIA      LGT RAIN  59  59 100 SW7       29.91R
SALINA         CLOUDY    61  58  90 SW5       29.90F
TOPEKA         CLOUDY    58  56  93 CALM      29.91S



USA.gov is the U.S. government's official web portal to all federal, state and local government web resources and services.